sat.trackr.live / text

‹ back to catalog

STARLINK-32809

NORAD 62849 · 2025-019W

PAYLOAD ACTIVE UNKNOWN

§ Identity

Operator
Country
US
Launch date
2025-01-27
Launch site
AFETR
Launch vehicle
Mass (kg)
RCS (m²)

Purposes: comms

External: N2YO · Heavens-Above · Gunter

§ Orbital elements

Epoch: 2026-05-25T01:20:15.522144Z

Period
94.27 min
Inclination
43.0007°
Eccentricity
0.0001292
Mean motion
15.27603046 rev/d
Perigee alt
482.1 km
Apogee alt
483.9 km
Semi-major
6,861.1 km
B*
5.9368e-4
RAAN
17.4004°
Arg perigee
268.5557°
Mean anomaly
91.5147°
Rev number
7,393

§ Raw data

STARLINK-328091 62849U 25019W   26145.05573521  .00016122  00000+0  59368-3 0  99972 62849  43.0007  17.4004 0001292 268.5557  91.5147 15.27603046 73936

JSON: /api/v1/satellites/62849 · /tle

For live sub-satellite position, see the globe view (requires WebGL).

§ Visibility from observer

Set your observer location to see the next 7 days of passes ≥ 10°. The values pass through the URL so the page stays shareable.

No JS? Fill the form by hand. The geolocation button needs JavaScript.